RH
24 14 7 13 16 19 15 17 26 40 34 32 41 62 64 68 76 74 71 93 81 96 99 99 93 83 78 64 64 58 67 71 86 94 64 47 47 48 41 51 56 42 39 40 28 29 29
25 25 21 9 11 15 22 18 19 34 38 32 36 53 75 68 72 77 87 78 88 92 84 83 85 83 89 74 65 58 58 82 79 95 98 59 59 92 49 63 51 44 45 40 35 34 30
21 26 27 27 15 10 15 21 23 22 34 33 34 48 65 67 80 69 79 72 85 82 84 84 85 90 80 71 100 88 62 78 78 99 96 76 86 68 62 59 45 44 42 40 33 33 30
18 15 22 29 28 23 10 15 20 28 26 30 34 40 60 66 65 74 80 85 94 80 79 78 86 98 88 87 88 92 96 83 91 96 84 86 69 63 62 50 38 41 42 42 36 32 26
18 18 14 21 30 30 26 10 15 22 31 30 29 40 59 54 57 69 71 80 83 64 63 69 70 88 98 99 100 99 98 96 98 91 100 85 71 60 55 44 33 31 33 34 34 29 23
9 16 17 13 20 29 33 23 10 17 24 32 30 30 40 62 44 58 72 73 68 66 59 62 46 80 96 97 96 99 97 96 92 94 70 66 65 54 45 39 27 28 29 27 25 26 26
8 8 11 14 12 20 32 32 20 10 17 26 32 26 32 41 58 43 49 45 51 54 40 67 68 50 80 97 97 89 88 98 80 72 69 62 63 47 39 30 21 17 15 18 23 26 24
5 7 8 9 9 13 24 34 30 12 10 17 29 23 26 32 47 47 39 37 42 50 58 54 70 70 56 74 75 74 77 87 66 69 61 51 52 46 34 24 20 15 14 18 19 21 21
4 4 5 6 7 10 15 31 27 16 12 12 23 21 23 28 36 57 59 49 49 53 51 52 54 60 57 53 47 47 43 61 51 56 47 42 42 42 36 28 24 26 18 17 17 15 15
4 4 4 5 5 8 9 28 28 29 22 10 19 20 16 26 31 39 52 55 54 56 53 56 47 50 51 44 45 48 41 42 43 44 45 42 44 37 38 30 33 30 28 24 21 16 16
5 4 4 4 4 6 8 19 29 28 28 17 10 23 15 17 29 34 40 44 50 61 72 52 53 51 48 42 44 40 43 38 36 39 35 44 43 40 34 35 34 30 31 26 21 18 19
9 5 4 4 4 5 6 8 20 26 27 25 18 12 22 14 22 31 37 46 58 53 65 59 54 50 42 41 40 39 34 36 36 29 34 34 32 30 31 32 29 31 24 19 16 15 30
13 7 5 4 4 4 4 5 9 15 21 27 25 16 15 20 15 28 36 39 46 60 55 56 53 45 44 43 40 37 33 30 31 32 30 30 26 26 27 26 23 21 16 34 38 50 50
16 11 8 5 4 4 4 4 6 9 12 17 26 25 14 17 17 13 27 31 44 63 64 57 55 47 41 46 46 39 34 28 26 27 26 25 28 25 23 22 25 23 26 47 44 80 68
16 15 12 8 6 4 4 4 4 6 8 8 15 24 23 15 17 16 13 18 42 46 50 57 46 42 46 45 43 44 36 35 28 25 27 25 28 23 21 23 25 27 31 36 35 56 56
14 15 14 11 8 6 4 4 4 4 4 6 10 17 22 21 17 18 17 20 27 34 42 43 55 52 46 50 42 38 40 34 45 41 33 30 27 24 22 22 25 29 34 29 28 49 68
13 13 14 13 10 7 6 5 4 4 4 4 6 10 17 25 23 18 18 26 28 30 36 39 44 50 42 56 61 52 36 35 35 30 31 33 38 32 27 25 26 28 34 33 43 50 80
11 11 11 11 11 8 7 6 6 5 4 4 4 7 15 18 28 27 20 24 28 34 37 38 44 46 45 45 46 49 45 40 34 26 20 31 44 46 36 45 37 40 32 32 32 48 57
12 10 11 12 11 9 8 7 6 6 6 5 4 5 13 16 25 31 30 22 20 21 26 28 29 25 26 32 32 33 35 36 37 37 34 27 44 45 41 39 35 38 39 40 42 56 66
66 31 13 11 11 11 10 8 8 8 7 6 5 5 9 17 21 29 35 39 33 24 21 20 21 23 23 20 18 16 16 17 18 18 20 23 25 39 36 43 54 47 37 35 45 63 51
80 75 54 20 12 11 11 10 10 9 8 8 6 6 6 16 20 26 33 39 45 45 37 28 23 21 22 22 19 17 17 16 15 14 14 15 15 15 14 16 22 22 28 33 43 41 45
73 77 77 61 28 16 13 12 12 10 10 9 8 6 6 12 18 21 26 34 43 44 44 42 38 35 30 27 25 26 22 22 21 20 21 21 20 18 14 14 14 14 12 11 13 17 19
75 75 77 75 60 38 24 16 14 13 12 11 9 8 8 11 17 20 21 21 27 35 44 50 54 58 55 48 40 37 35 35 32 34 36 37 36 37 33 33 35 32 24 24 22 22 23
67 66 67 72 72 60 42 29 21 16 14 12 11 9 9 12 18 20 20 23 22 22 24 27 41 50 53 59 63 66 64 63 61 55 53 53 53 57 53 49 56 32 32 32 33 28 29
78 67 56 52 52 57 54 39 26 21 18 16 13 11 11 14 19 22 20 20 24 24 22 34 38 37 34 46 54 55 53 53 51 52 56 55 60 61 60 66 40 37 36 31 30 32 31
74 80 51 43 42 43 45 43 34 28 22 19 16 14 16 20 26 29 27 26 24 22 26 31 42 42 45 50 44 52 54 52 52 50 46 47 58 69 72 68 66 37 36 38 39 37 37
79 80 87 87 69 54 51 56 47 41 33 27 23 22 26 26 29 30 30 29 30 28 28 27 35 44 53 57 54 59 60 59 56 58 56 56 56 63 77 80 55 47 45 45 49 45 43
81 62 96 98 92 65 46 45 52 61 67 59 47 44 43 44 37 36 36 38 37 34 34 44 49 43 44 59 72 71 70 68 64 61 60 61 60 59 71 87 74 51 55 59 57 57 55
46 38 76 100 98 96 75 62 74 67 41 44 66 67 63 59 52 47 44 40 38 39 48 42 43 50 56 60 75 80 82 79 70 70 64 66 62 57 58 53 56 62 66 81 87 84 85
Wind_Speed
25 22 22 24 26 26 24 23 23 22 27 32 35 37 30 33 23 18 24 23 28 26 21 21 17 12 10 10 6 15 20 19 22 29 36 39 39 40 42 38 28 24 20 19 24 25 25
28 26 25 24 24 26 27 25 23 21 24 29 34 37 29 30 27 18 23 22 22 27 22 20 15 9 8 6 8 20 17 21 22 28 34 40 38 28 35 33 25 23 20 22 25 25 24
28 30 30 28 25 25 26 27 25 22 21 26 30 34 31 26 23 22 23 22 20 20 21 20 15 10 4 8 16 11 13 21 22 34 39 39 29 30 32 32 23 20 18 21 22 22 22
26 29 31 32 30 27 26 26 28 25 22 23 26 30 33 25 24 23 24 24 22 25 30 28 21 8 9 20 15 12 16 16 13 34 40 33 28 25 32 28 24 18 17 21 21 20 19
23 26 29 31 33 32 28 25 26 27 25 22 21 23 29 27 22 21 24 26 25 27 23 19 17 21 26 34 35 28 25 29 45 37 34 19 23 25 31 29 26 18 17 17 19 20 20
21 23 26 29 32 34 33 28 25 26 27 24 19 18 19 27 23 17 18 18 17 15 14 16 20 25 23 23 35 29 30 35 37 27 17 18 23 24 26 28 21 19 16 13 15 18 17
20 21 24 26 29 32 35 31 27 24 26 26 21 15 13 15 23 22 23 24 29 28 29 28 26 29 26 19 23 28 28 24 21 17 21 22 24 25 31 27 21 21 18 14 13 16 15
20 20 22 24 26 29 32 34 28 24 25 26 24 17 11 9 12 19 21 24 28 27 27 25 22 25 25 23 23 22 16 28 22 23 22 21 26 26 22 25 23 22 20 16 13 14 17
19 20 21 22 24 26 30 34 29 26 26 26 25 20 12 9 7 10 19 26 26 26 26 22 20 19 21 18 22 18 18 20 18 22 16 20 23 18 11 23 23 20 18 18 13 15 14
17 19 20 21 22 24 27 30 30 29 27 26 26 23 15 10 7 4 7 11 12 11 10 17 16 14 15 15 17 19 18 20 18 18 17 18 15 14 12 25 22 22 17 15 11 14 5
14 15 17 19 20 22 24 26 28 29 29 28 26 25 17 14 8 5 4 2 2 2 4 4 14 10 4 8 15 13 11 15 22 19 10 13 11 14 15 17 18 16 14 12 10 10 6
11 12 14 17 18 19 21 22 24 26 29 29 27 25 22 16 10 7 6 3 6 3 5 4 8 12 13 13 16 14 11 10 11 15 17 19 13 11 11 14 10 15 12 9 6 4 2
9 10 12 14 15 18 19 20 21 23 25 27 29 26 23 20 13 10 8 5 3 7 4 5 9 12 12 15 13 11 9 8 12 13 20 16 13 10 9 9 9 11 12 4 2 1 4
9 9 10 12 13 15 17 18 18 20 22 24 25 25 21 20 18 11 9 7 11 7 9 7 8 8 8 9 8 9 10 12 9 13 15 5 5 10 10 7 5 9 8 2 5 3 3
9 9 9 10 11 12 14 16 17 18 20 22 20 22 20 19 17 11 8 8 6 9 11 8 9 5 3 3 4 4 8 10 13 12 3 6 6 8 10 7 6 7 5 4 3 1 2
10 9 9 10 10 11 12 13 15 16 18 19 19 18 20 16 14 12 10 12 10 10 7 3 4 3 3 4 2 2 1 6 8 8 7 7 6 9 8 8 7 6 7 3 3 2 3
12 11 11 11 12 11 11 11 12 13 15 17 17 16 19 17 12 9 10 13 10 6 4 2 4 4 3 4 3 2 2 4 4 6 7 8 5 9 10 9 9 10 10 7 5 5 5
14 13 13 12 12 12 12 12 12 12 13 14 14 14 14 16 13 8 9 8 8 7 5 4 3 3 3 3 2 1 3 5 9 5 3 5 4 4 10 10 14 16 13 14 6 7 8
16 16 15 14 12 12 12 13 12 12 12 12 13 11 12 15 12 12 9 5 4 3 2 3 3 2 2 3 2 3 2 3 4 6 7 9 5 4 2 9 14 17 19 18 17 9 10
19 17 17 16 14 14 13 13 13 12 11 12 12 10 11 11 12 11 8 7 4 2 1 0 1 3 2 2 1 3 3 3 4 4 4 4 6 8 5 2 5 9 15 20 21 14 15
21 20 19 18 18 16 15 14 13 13 12 10 9 8 9 9 10 10 8 6 5 2 1 1 1 2 3 3 3 3 4 5 6 7 7 7 8 11 13 14 17 19 19 15 25 29 23
26 23 21 19 18 18 17 15 14 13 12 9 10 9 8 7 7 7 8 7 6 5 3 1 2 3 4 6 6 5 6 6 8 8 8 10 9 13 16 16 20 26 26 28 32 35 39
26 24 23 22 20 18 17 16 15 15 14 12 9 8 8 8 7 5 5 5 5 5 4 5 5 5 6 6 7 9 10 11 12 12 12 12 10 9 7 10 13 20 21 21 28 32 32
24 23 23 23 23 21 19 18 17 15 15 14 13 12 10 11 9 9 8 7 6 6 7 7 6 6 5 7 9 12 14 15 17 18 17 16 13 10 10 11 2 2 6 11 14 15 19
24 22 22 22 23 24 22 20 19 18 17 17 16 14 14 13 13 13 12 11 11 10 8 7 6 7 9 9 9 7 8 8 10 13 18 18 17 8 5 6 18 17 7 5 9 12 14
25 22 19 20 21 23 23 22 23 21 20 19 19 18 18 17 16 16 16 14 14 13 13 11 10 9 9 9 7 5 4 4 3 5 7 12 15 16 8 4 5 5 6 9 13 17 15
28 26 25 22 21 21 22 23 25 23 22 22 22 21 22 21 21 19 20 19 18 16 16 16 15 14 13 13 12 10 9 8 6 7 7 8 11 21 22 10 12 18 16 13 8 8 11
38 33 28 25 22 21 20 20 22 23 24 24 24 24 25 25 23 23 22 20 21 21 20 16 13 15 14 12 9 8 9 10 10 11 7 8 6 9 11 10 11 3 11 13 14 14 14
42 40 34 32 28 27 27 26 27 25 23 24 24 26 28 27 23 21 21 25 26 25 19 20 20 17 11 9 9 7 10 9 11 7 14 12 11 7 9 8 18 22 24 22 25 28 32
Wind_Direction
32 26 23 23 25 21 22 19 19 19 17 21 21 21 22 18 34 48 61 52 64 68 72 102 104 115 129 150 147 177 190 198 185 199 166 164 171 169 174 173 174 175 173 163 172 179 193
35 32 28 25 22 23 21 22 17 18 13 21 22 23 26 22 37 56 60 69 63 70 70 66 64 78 117 172 154 169 174 175 195 196 168 162 162 156 173 171 171 174 165 168 166 177 187
35 35 34 29 23 20 21 21 20 15 13 16 23 23 29 29 40 49 61 68 85 69 66 59 63 56 324 152 134 125 181 179 200 169 150 152 149 152 175 171 166 158 168 172 176 183 191
32 31 33 32 28 21 18 18 19 19 13 11 23 25 26 37 41 58 64 73 76 69 69 70 67 79 71 109 133 103 132 163 121 123 144 141 141 154 172 169 156 162 168 172 183 188 196
29 29 28 30 29 26 21 16 17 19 18 12 19 31 27 40 35 65 61 66 68 89 76 65 62 70 89 117 123 121 110 125 134 144 142 134 145 152 169 171 159 158 167 178 184 193 194
27 26 26 26 25 24 23 19 17 17 19 16 15 28 33 34 50 60 76 74 60 59 57 63 77 83 78 66 120 122 115 133 156 117 123 140 152 159 171 172 166 166 161 169 182 188 190
27 23 23 24 23 21 20 21 18 18 17 19 14 24 38 38 46 67 78 86 84 76 77 76 88 91 102 81 96 112 126 134 111 133 137 148 155 158 156 177 182 186 185 178 176 189 194
24 24 21 21 22 21 20 18 20 20 19 20 17 18 42 58 64 76 83 78 74 73 79 81 84 93 97 110 105 109 115 119 125 137 149 146 157 159 147 158 167 178 185 181 183 195 202
20 21 22 21 21 21 21 20 21 21 21 21 21 17 32 58 91 106 91 88 80 76 77 78 81 94 106 113 113 122 123 128 130 146 142 144 149 167 161 157 164 166 180 185 195 200 208
12 17 18 20 21 21 21 22 24 22 22 22 23 22 25 47 57 117 142 104 96 80 73 58 81 88 108 118 107 116 122 127 123 135 142 136 131 153 158 165 170 163 178 184 189 190 195
3 12 14 16 20 20 20 20 26 25 25 24 22 25 28 34 44 53 81 163 180 72 60 48 58 81 135 119 124 128 128 138 136 145 152 140 130 137 153 144 163 156 161 177 180 191 201
354 6 11 12 15 19 18 17 19 21 25 24 23 23 27 35 41 45 44 48 86 75 41 74 80 80 107 114 108 103 127 133 129 155 154 152 151 150 152 154 154 159 159 161 169 186 279
344 358 3 7 12 10 15 15 13 17 17 20 22 22 23 30 38 49 46 13 44 60 110 85 93 105 112 112 112 116 108 117 126 117 127 134 151 154 150 159 155 166 158 83 26 354 218
332 344 351 357 4 9 8 10 11 12 12 14 16 22 23 27 30 43 50 50 63 88 96 109 93 101 107 112 110 115 109 113 134 140 127 119 137 151 163 185 173 173 182 116 184 184 248
317 327 334 342 350 360 4 5 3 3 6 9 10 16 24 32 34 39 70 74 109 112 120 115 97 78 95 78 115 109 118 118 124 147 155 136 142 166 166 176 178 183 189 179 103 8 324
306 310 316 323 333 344 354 358 1 357 358 4 7 9 22 29 33 47 77 97 116 124 136 128 104 68 101 94 96 82 73 149 138 140 132 143 132 170 176 188 202 197 184 165 191 139 272
299 304 308 311 317 327 337 345 352 355 354 357 4 8 15 22 30 46 74 96 105 113 121 140 122 134 139 128 131 136 152 172 180 170 175 163 163 180 192 208 218 211 208 203 192 208 171
295 298 301 302 306 314 323 331 342 346 349 351 0 7 11 16 26 43 64 84 98 100 110 116 119 128 151 153 176 200 177 183 179 196 200 198 193 181 202 206 210 213 220 217 207 211 211
288 292 293 295 298 302 310 318 328 337 343 349 353 4 11 16 23 34 50 64 69 84 130 144 152 157 146 165 155 141 151 179 194 192 188 190 199 178 225 240 234 230 222 219 228 235 223
281 284 287 289 294 300 305 310 316 326 337 341 349 354 2 5 19 30 31 34 37 35 65 57 180 178 177 187 198 167 161 179 189 208 233 242 250 231 214 207 216 223 240 234 231 231 231
271 270 274 281 289 291 294 298 304 312 322 333 342 343 350 348 5 13 24 29 25 7 339 288 220 251 253 256 253 231 226 230 237 246 242 249 265 266 268 270 267 265 256 246 238 243 247
270 269 270 271 275 281 288 292 294 298 303 317 322 324 327 329 342 353 359 7 15 17 11 315 264 273 260 250 250 262 264 269 261 254 247 257 267 275 274 271 270 269 265 258 254 255 256
265 264 266 268 269 272 278 283 286 292 295 296 293 294 299 303 303 301 314 331 345 360 353 328 315 298 281 269 262 262 264 265 264 263 262 265 267 286 276 275 275 278 278 260 261 263 268
262 264 262 264 267 267 267 271 275 277 281 285 288 287 282 282 275 276 280 282 292 313 323 328 327 325 312 304 291 282 272 268 267 265 262 262 267 272 275 288 267 241 279 273 275 280 267
258 261 263 264 266 268 266 265 266 268 270 273 275 273 273 269 272 272 270 265 271 276 279 278 295 303 322 311 318 313 302 282 273 265 261 261 259 262 266 265 287 283 285 308 287 285 279
270 263 264 263 262 265 267 264 262 264 267 268 267 267 268 269 267 266 264 261 269 267 274 274 261 273 275 272 277 213 211 254 277 282 255 248 243 237 240 251 258 275 272 302 303 290 285
273 268 261 264 266 266 266 264 262 262 261 263 266 264 266 268 267 265 264 265 261 261 267 272 268 271 277 272 254 232 215 217 219 217 227 232 239 237 244 252 275 279 287 295 277 286 284
269 268 257 255 261 266 267 266 266 265 263 261 263 264 264 263 264 264 262 261 261 265 267 263 262 265 270 260 259 250 238 221 233 234 245 242 233 220 215 219 255 303 317 301 298 290 280
266 265 248 250 260 262 260 262 266 266 266 266 263 262 263 262 261 264 266 264 262 262 255 259 260 255 245 256 245 248 260 260 254 254 265 267 256 258 231 267 286 298 299 294 286 287 291